Westerly, RI

3:20 AM EDT on April 27, 2017 (GMT -0400)
Westerly State

Weather History for KWST - September, 2013

Change the Weather History Date:

Tuesday, September 3, 2013

  Actual Average (KGON) Record (KGON)
Temperature  
Mean Temperature 68 °F -  
Max Temperature 73 °F 76 °F 90 °F (1973)
Min Temperature 63 °F 58 °F 42 °F (1967)
Cooling Degree Days 4    
Growing Degree Days 18 (Base 50)    
Moisture  
Dew Point 70 °F    
Average Humidity 99    
Maximum Humidity 100    
Minimum Humidity 90    
Precipitation  
Precipitation 1.23 in - - ()
Sea Level Pressure  
Sea Level Pressure 29.77 in    
Wind  
Wind Speed 3 mph (SSW)    
Max Wind Speed 10 mph    
Max Gust Speed -    
Visibility 3 miles    
Events Fog , Rain , Thunderstorm    
Averages and records for this station are not official NWS values.
T = Trace of Precipitation, MM = Missing Value Source: NWS Daily Summary

Daily Weather History Graph

Daily Weather History Graph

Search for Another Location

Airport or City:

Trip Planner

Search our weather history database for the weather conditions in past years. The results will help you decide how hot, cold, wet, or windy it might be!

Date:

Astronomy

Sep. 03, 2013 Rise Set
Actual Time 6:15 AM EDT 7:16 PM EDT
Civil Twilight 5:47 AM EDT 7:44 PM EDT
Nautical Twilight 5:13 AM EDT 8:18 PM EDT
Astronomical Twilight 4:38 AM EDT 8:53 PM EDT
Moon 4:26 AM EDT (9/3) 6:02 PM EDT (9/3)
Length of Visible Light 13h 57m
Length of Day
13h 00m
Waning Crescent, 3% of the Moon is Illuminated
Sep 3
Waning Crescent
Sep 5
New
Sep 12
First Quarter
Sep 19
Full
Sep 26
Last Quarter

Hourly Weather History & Observations

Time (EDT) Temp. Dew Point Humidity Pressure Visibility Wind Dir Wind Speed Gust Speed Precip Events Conditions
12:02 AM 71.6 °F 71.6 °F 100% 29.77 in 1.8 mi Calm Calm - 0.00 in Rain Light Rain
12:10 AM 71.6 °F 71.6 °F 100% 29.77 in 2.0 mi SSW 3.5 mph - 0.00 in Rain Light Rain
12:24 AM 71.6 °F 71.6 °F 100% 29.77 in 4.0 mi SSW 3.5 mph - 0.00 in   Overcast
12:44 AM 71.6 °F 71.6 °F 100% 29.76 in 4.0 mi Calm Calm - 0.00 in   Mostly Cloudy
12:53 AM 71.1 °F 71.1 °F 100% 29.77 in 4.0 mi Calm Calm - 0.00 in   Mostly Cloudy
1:05 AM 71.6 °F 71.6 °F 100% 29.78 in 2.5 mi SW 3.5 mph - N/A   Mostly Cloudy
1:15 AM 71.6 °F 71.6 °F 100% 29.77 in 1.8 mi Calm Calm - N/A   Mostly Cloudy
1:24 AM 71.6 °F 71.6 °F 100% 29.77 in 2.5 mi WSW 3.5 mph - N/A   Overcast
1:32 AM 71.6 °F 71.6 °F 100% 29.77 in 3.0 mi SW 3.5 mph - N/A   Overcast
1:43 AM 71.6 °F 71.6 °F 100% 29.76 in 2.0 mi Calm Calm - N/A   Overcast
1:53 AM 71.1 °F 71.1 °F 100% 29.76 in 1.5 mi SW 3.5 mph - N/A   Overcast
2:08 AM 71.6 °F 71.6 °F 100% 29.76 in 0.5 mi SW 4.6 mph - N/A Fog Fog
2:19 AM 71.6 °F 71.6 °F 100% 29.75 in 0.2 mi SSW 5.8 mph - N/A Fog Fog
2:26 AM 71.6 °F 71.6 °F 100% 29.75 in 0.8 mi SW 4.6 mph - N/A   Mist
2:31 AM 71.6 °F 71.6 °F 100% 29.75 in 2.0 mi SSW 4.6 mph - N/A   Overcast
2:53 AM 71.1 °F 71.1 °F 100% 29.74 in 3.0 mi SW 4.6 mph - N/A   Overcast
3:24 AM 71.6 °F 71.6 °F 100% 29.72 in 2.5 mi South 4.6 mph - N/A   Overcast
3:41 AM 69.8 °F 69.8 °F 100% 29.71 in 1.2 mi South 3.5 mph - N/A   Overcast
3:51 AM 69.8 °F 69.8 °F 100% 29.71 in 0.8 mi South 5.8 mph - N/A   Mist
3:53 AM 70.0 °F 70.0 °F 100% 29.71 in 0.8 mi South 6.9 mph - N/A   Mist
4:06 AM 69.8 °F 69.8 °F 100% 29.71 in 2.0 mi SSW 5.8 mph - N/A   Overcast
4:24 AM 69.8 °F 69.8 °F 100% 29.72 in 3.0 mi SW 3.5 mph - N/A   Overcast
4:53 AM 70.0 °F 70.0 °F 100% 29.74 in 3.0 mi Calm Calm - N/A   Overcast
5:00 AM 69.8 °F 69.8 °F 100% 29.74 in 2.5 mi Variable 3.5 mph - N/A   Overcast
5:28 AM 69.8 °F 69.8 °F 100% 29.74 in 1.5 mi Calm Calm - N/A   Overcast
5:53 AM 70.0 °F 70.0 °F 100% 29.75 in 1.0 mi Calm Calm - N/A   Overcast
6:44 AM 71.6 °F 71.6 °F 100% 29.76 in 1.5 mi Calm Calm - N/A   Overcast
6:53 AM 71.1 °F 71.1 °F 100% 29.77 in 2.0 mi Calm Calm - N/A   Overcast
7:03 AM 71.6 °F 71.6 °F 100% 29.77 in 2.0 mi Calm Calm - N/A   Overcast
7:39 AM 71.6 °F 71.6 °F 100% 29.78 in 2.5 mi Calm Calm - N/A   Overcast
7:53 AM 72.0 °F 72.0 °F 100% 29.78 in 2.0 mi Calm Calm - N/A   Overcast
8:43 AM 71.6 °F 71.6 °F 100% 29.79 in 0.8 mi SSE 5.8 mph - N/A   Overcast
8:53 AM 71.1 °F 71.1 °F 100% 29.79 in 0.2 mi SSE 6.9 mph - N/A Fog Fog
9:17 AM 71.6 °F 71.6 °F 100% 29.79 in 1.0 mi South 4.6 mph - N/A   Overcast
9:22 AM 71.6 °F 71.6 °F 100% 29.79 in 3.0 mi SSW 3.5 mph - N/A   Overcast
9:49 AM 73.4 °F 71.6 °F 94% 29.81 in 7.0 mi South 8.1 mph - N/A   Overcast
9:53 AM 73.0 °F 70.0 °F 90% 29.81 in 8.0 mi SSW 8.1 mph - N/A   Overcast
10:07 AM 73.4 °F 71.6 °F 94% 29.80 in 8.0 mi South 4.6 mph - N/A   Overcast
10:29 AM 73.4 °F 71.6 °F 94% 29.80 in 9.0 mi SW 4.6 mph - N/A   Overcast
10:53 AM 73.0 °F 72.0 °F 96% 29.78 in 4.0 mi SSW 5.8 mph - 0.00 in Rain Light Rain
11:05 AM 73.4 °F 71.6 °F 94% 29.77 in 2.0 mi Calm Calm - 0.02 in Rain Light Rain
11:16 AM 73.4 °F 71.6 °F 94% 29.77 in 4.0 mi Calm Calm - 0.02 in Rain Light Rain
11:43 AM 73.4 °F 71.6 °F 94% 29.78 in 5.0 mi South 4.6 mph - 0.02 in Rain , Thunderstorm Light Rain
11:53 AM 72.0 °F 72.0 °F 100% 29.78 in 3.0 mi SSE 5.8 mph - 0.02 in Rain Light Rain
11:59 AM 71.6 °F 71.6 °F 100% 29.78 in 1.8 mi South 5.8 mph - 0.00 in Rain Light Rain
12:04 PM 69.8 °F 69.8 °F 100% 29.79 in 0.8 mi South 5.8 mph - 0.00 in Rain Light Rain
12:16 PM 69.8 °F 69.8 °F 100% 29.80 in 0.2 mi South 6.9 mph - 0.00 in Fog , Rain , Thunderstorm Light Rain
12:28 PM 69.8 °F 69.8 °F 100% 29.79 in 0.5 mi South 6.9 mph - 0.00 in Fog , Rain , Thunderstorm Light Rain
12:51 PM 69.8 °F 69.8 °F 100% 29.79 in 2.0 mi SSW 9.2 mph - 0.01 in Rain , Thunderstorm Light Thunderstorms and Rain
12:53 PM 69.1 °F 69.1 °F 100% 29.79 in 3.0 mi SSW 10.4 mph - 0.02 in Rain , Thunderstorm Thunderstorms and Rain
12:56 PM 69.8 °F 68.0 °F 94% 29.78 in 2.5 mi South 8.1 mph - 0.02 in Rain , Thunderstorm Heavy Thunderstorms and Rain
1:02 PM 68.0 °F 68.0 °F 100% 29.78 in 1.5 mi South 6.9 mph - 0.07 in Rain , Thunderstorm Heavy Thunderstorms and Rain
1:09 PM 68.0 °F 68.0 °F 100% 29.78 in 3.0 mi South 6.9 mph - 0.07 in Rain , Thunderstorm Light Rain
1:34 PM 68.0 °F 66.2 °F 94% 29.77 in 2.5 mi Variable 3.5 mph - 0.09 in Rain , Thunderstorm Light Rain
1:53 PM 68.0 °F 66.9 °F 96% 29.78 in 5.0 mi Variable 3.5 mph - 0.11 in Rain , Thunderstorm Light Thunderstorms and Rain
2:00 PM 68.0 °F 68.0 °F 100% 29.78 in 1.8 mi South 4.6 mph - 0.05 in Rain , Thunderstorm Heavy Thunderstorms and Rain
2:40 PM 68.0 °F 66.2 °F 94% 29.78 in 0.5 mi SW 8.1 mph - 0.33 in Fog , Rain , Thunderstorm Heavy Thunderstorms and Rain
2:58 PM 66.2 °F 66.2 °F 100% 29.77 in 0.5 mi Variable 5.8 mph - 0.18 in Fog , Rain , Thunderstorm Heavy Thunderstorms and Rain
3:04 PM 66.2 °F 66.2 °F 100% 29.76 in 0.2 mi SSE 5.8 mph - 0.36 in Fog , Rain , Thunderstorm Heavy Thunderstorms and Rain
3:11 PM 68.0 °F 68.0 °F 100% 29.75 in 1.0 mi SSE 6.9 mph - 0.37 in Rain , Thunderstorm Thunderstorms and Rain
3:17 PM 68.0 °F 68.0 °F 100% 29.76 in 3.0 mi South 4.6 mph - 0.37 in Rain , Thunderstorm Light Rain
3:23 PM 69.8 °F 68.0 °F 94% 29.76 in 1.8 mi SW 4.6 mph - 0.40 in Rain , Thunderstorm Rain
3:35 PM 69.8 °F 68.0 °F 94% 29.76 in 1.2 mi South 4.6 mph - 0.46 in Rain , Thunderstorm Heavy Rain
3:49 PM 69.8 °F 69.8 °F 100% 29.76 in 0.8 mi South 8.1 mph - 0.71 in Rain , Thunderstorm Heavy Thunderstorms and Rain
3:53 PM 69.1 °F 69.1 °F 100% 29.76 in 0.5 mi Variable 6.9 mph - 0.85 in Fog , Rain , Thunderstorm Heavy Thunderstorms and Rain
4:00 PM 69.8 °F 69.8 °F 100% 29.76 in 0.8 mi Calm Calm - 0.00 in Rain , Thunderstorm Light Thunderstorms and Rain
4:02 PM 69.8 °F 69.8 °F 100% 29.76 in 1.2 mi South 3.5 mph - 0.02 in Rain , Thunderstorm Light Thunderstorms and Rain
4:04 PM 69.8 °F 69.8 °F 100% 29.76 in 1.2 mi SW 3.5 mph - 0.04 in Rain , Thunderstorm Light Rain
4:14 PM 69.8 °F 69.8 °F 100% 29.76 in 0.5 mi South 4.6 mph - 0.17 in Fog , Rain , Thunderstorm Heavy Rain
4:27 PM 69.8 °F 68.0 °F 94% 29.76 in 2.5 mi Calm Calm - 0.23 in Rain , Thunderstorm Light Thunderstorms and Rain
4:34 PM 69.8 °F 69.8 °F 100% 29.76 in 7.0 mi South 3.5 mph - 0.23 in Rain , Thunderstorm Light Thunderstorms and Rain
4:41 PM 69.8 °F 69.8 °F 100% 29.76 in 7.0 mi South 4.6 mph - 0.23 in Thunderstorm Overcast
4:53 PM 69.1 °F 69.1 °F 100% 29.76 in 6.0 mi Calm Calm - 0.23 in Thunderstorm Overcast
5:13 PM 69.8 °F 69.8 °F 100% 29.76 in 6.0 mi Calm Calm - N/A   Overcast
5:22 PM 69.8 °F 69.8 °F 100% 29.76 in 6.0 mi Calm Calm - N/A   Overcast
5:53 PM 69.1 °F 69.1 °F 100% 29.76 in 3.0 mi Calm Calm - 0.00 in Rain Light Rain
6:00 PM 69.8 °F 69.8 °F 100% 29.76 in 2.5 mi Calm Calm - 0.00 in Rain Light Rain
6:17 PM 69.8 °F 69.8 °F 100% 29.77 in 4.0 mi Calm Calm - 0.00 in   Overcast
6:31 PM 69.8 °F 69.8 °F 100% 29.77 in 4.0 mi Calm Calm - 0.00 in   Overcast
6:41 PM 69.8 °F 69.8 °F 100% 29.78 in 6.0 mi Variable 3.5 mph - 0.00 in   Overcast
6:53 PM 70.0 °F 69.1 °F 97% 29.78 in 8.0 mi Variable 3.5 mph - 0.00 in   Mostly Cloudy
7:53 PM 68.0 °F 66.9 °F 96% 29.80 in 10.0 mi Calm Calm - N/A   Clear
8:53 PM 66.0 °F 66.0 °F 100% 29.82 in 9.0 mi Calm Calm - N/A   Clear
9:40 PM 64.4 °F 64.4 °F 100% 29.83 in 2.0 mi Calm Calm - N/A   Partly Cloudy
9:50 PM 64.4 °F 64.4 °F 100% 29.84 in 6.0 mi Calm Calm - N/A   Partly Cloudy
9:53 PM 64.0 °F 64.0 °F 100% 29.84 in 6.0 mi Calm Calm - N/A   Partly Cloudy
10:53 PM 64.0 °F 63.0 °F 96% 29.85 in 10.0 mi Calm Calm - N/A   Clear
11:53 PM 63.0 °F 62.1 °F 97% 29.86 in 10.0 mi NW 3.5 mph - N/A   Clear